Location: Berg
(47.2344°N, 9.5296°E)
Time: 23:36:45
(UTC+00:00)

AAUSAT CUBESAT 2 - Pass Details

Date: 03 December 2021
Orbit: 571 x 586 km, 97.5° (Epoch: 19 January)

Event Time Altitude Azimuth Distance (km) Brightness Sun altitude
Rises 03:46:01 0° 24° (NNE) 2,797 ? -30.4°
Reaches altitude 10° 03:48:30 10° 38° (NE) 1,895 ? -30.0°
Maximum altitude 03:51:53 25° 94° (E) 1,200 ? -29.4°
Drops below altitude 10° 03:55:16 10° 150° (SSE) 1,889 ? -28.8°
Sets 03:57:43 0° 164° (SSE) 2,785 ? -28.4°
